Location: Unspecified
(0.0000°N, 0.0000°E)
Time: 14:06:46
(UTC+01:00)

Sapphire - Visible Passes

Search period start: 27 November 2014 00:00
Search period end: 07 December 2014 00:00
Orbit: 785 x 798 km, 67.1° (Epoch: 27 November)

Date Brightness Start Highest point End Pass type
(mag) Time Alt. Az. Time Alt. Az. Time Alt. Az.
27 Nov ? 06:15:19 10° NNE 06:19:29 23° ENE 06:23:38 10° ESE visible
28 Nov ? 05:46:07 10° NE 05:49:01 15° ENE 05:51:56 10° ESE visible
28 Nov ? 20:07:05 10° W 20:08:35 11° WNW 20:10:04 10° NW visible
29 Nov ? 19:34:34 10° WSW 19:38:06 18° WNW 19:41:39 10° NNW visible
01 Dec ? 05:55:32 10° N 06:00:52 62° ENE 06:06:11 10° SSE visible
02 Dec ? 05:25:24 10° N 05:30:25 39° ENE 05:35:26 10° SE visible
03 Dec ? 04:55:51 11° NNE 04:59:58 26° ENE 05:04:23 10° SE visible
04 Dec ? 04:27:11 13° NE 04:29:31 17° ENE 04:32:54 10° ESE visible
04 Dec ? 06:08:00 10° NW 06:12:40 31° WSW 06:17:24 10° S visible
05 Dec ? 03:58:29 10° ENE 03:59:02 10° ENE 03:59:58 10° E visible
05 Dec ? 05:39:18 24° NW 05:42:13 48° WSW 05:47:24 10° S visible
06 Dec ? 05:10:32 53° NW 05:11:46 76° WSW 05:17:10 10° SSE visible
